Shawnee Mission, KS

8:18 PM CST on February 09, 2016 (GMT -0600)
Johnson County Executive

Weather History for KOJC - October, 2011

Change the Weather History Date:

Friday, October 7, 2011

  Actual Average Record
Temperature  
Mean Temperature 73 °F 60 °F  
Max Temperature 83 °F 70 °F 98 °F (1939)
Min Temperature 63 °F 50 °F 28 °F (1952)
Degree Days  
Heating Degree Days 0 6  
Month to date heating degree days 14 38  
Since 1 July heating degree days 92 87  
Cooling Degree Days 8 2  
Month to date cooling degree days 16 14  
Year to date cooling degree days 1683 1335  
Growing Degree Days 22 (Base 50)    
Moisture  
Dew Point 53 °F    
Average Humidity 54    
Maximum Humidity 65    
Minimum Humidity 43    
Precipitation  
Precipitation 0.00 in 0.12 in 2.08 in (2004)
Month to date precipitation 0.00 0.89  
Year to date precipitation 24.39 33.36  
Sea Level Pressure  
Sea Level Pressure 30.02 in    
Wind  
Wind Speed 15 mph (SSE)    
Max Wind Speed 25 mph    
Max Gust Speed 35 mph    
Visibility 10 miles    
Events      
T = Trace of Precipitation, MM = Missing Value Source: NWS Daily Summary

Daily Weather History Graph

Daily Weather History Graph

Search for Another Location

Airport or City:

Trip Planner

Search our weather history database for the weather conditions in past years. The results will help you decide how hot, cold, wet, or windy it might be!

Date:

Astronomy

Oct. 07, 2011 Rise Set
Actual Time 7:20 AM CDT 6:52 PM CDT
Civil Twilight 6:53 AM CDT 7:19 PM CDT
Nautical Twilight 6:22 AM CDT 7:50 PM CDT
Astronomical Twilight 5:51 AM CDT 8:21 PM CDT
Moon 4:34 PM CDT (10/7) 3:12 AM CDT (10/7)
Length of Visible Light 12h 25m
Length of Day
11h 32m
Waxing Gibbous, 83% of the Moon is Illuminated
Oct 7
Waxing Gibbous
Oct 11
Full
Oct 19
Last Quarter
Oct 26
New
Nov 2
First Quarter

Hourly Weather History & Observations

Time (CDT) Temp. Heat Index Dew Point Humidity Pressure Visibility Wind Dir Wind Speed Gust Speed Precip Events Conditions
12:53 AM 68.0 °F - 48.9 °F 50% 29.97 in 10.0 mi SSE 15.0 mph - N/A   Clear
1:53 AM 66.9 °F - 48.9 °F 52% 29.97 in 10.0 mi SSE 12.7 mph 21.9 mph N/A   Clear
2:53 AM 64.0 °F - 50.0 °F 60% 29.99 in 10.0 mi SSE 10.4 mph - N/A   Clear
3:53 AM 63.0 °F - 50.0 °F 63% 30.00 in 10.0 mi SSE 9.2 mph - N/A   Clear
4:53 AM 64.9 °F - 50.0 °F 58% 30.01 in 10.0 mi SSE 12.7 mph - N/A   Clear
5:53 AM 64.9 °F - 50.0 °F 58% 30.02 in 10.0 mi SSE 15.0 mph - N/A   Clear
6:53 AM 64.9 °F - 50.0 °F 58% 30.03 in 10.0 mi SSE 18.4 mph - N/A   Clear
7:53 AM 66.0 °F - 51.1 °F 59% 30.05 in 10.0 mi SSE 15.0 mph 24.2 mph N/A   Clear
8:53 AM 68.0 °F - 52.0 °F 56% 30.07 in 10.0 mi South 16.1 mph 25.3 mph N/A   Clear
9:53 AM 72.0 °F - 53.1 °F 51% 30.07 in 10.0 mi South 18.4 mph 29.9 mph N/A   Clear
10:53 AM 75.0 °F - 55.9 °F 51% 30.06 in 10.0 mi South 18.4 mph 33.4 mph N/A   Clear
12:53 PM 80.1 °F 80.6 °F 57.9 °F 47% 30.05 in 10.0 mi South 19.6 mph 29.9 mph N/A   Mostly Cloudy
1:53 PM 80.1 °F 80.7 °F 59.0 °F 48% 30.04 in 10.0 mi South 17.3 mph 27.6 mph N/A   Mostly Cloudy
2:53 PM 81.0 °F 81.3 °F 59.0 °F 47% 30.02 in 10.0 mi South 15.0 mph 26.5 mph N/A   Mostly Cloudy
3:53 PM 80.1 °F 80.7 °F 59.0 °F 48% 30.02 in 10.0 mi South 17.3 mph 26.5 mph N/A   Overcast
4:53 PM 80.1 °F 80.6 °F 57.9 °F 47% 30.01 in 10.0 mi SSE 13.8 mph 24.2 mph N/A   Overcast
5:53 PM 79.0 °F - 55.9 °F 45% 30.00 in 10.0 mi SSE 16.1 mph 21.9 mph N/A   Partly Cloudy
6:53 PM 77.0 °F - 54.0 °F 45% 30.01 in 10.0 mi SSE 12.7 mph - N/A   Clear
7:53 PM 73.9 °F - 54.0 °F 50% 30.03 in 10.0 mi SSE 11.5 mph - N/A   Clear
8:53 PM 73.0 °F - 53.1 °F 49% 30.04 in 10.0 mi SSE 11.5 mph - N/A   Clear
9:53 PM 72.0 °F - 51.1 °F 48% 30.03 in 10.0 mi SSE 15.0 mph - N/A   Clear
10:53 PM 70.0 °F - 51.1 °F 51% 30.04 in 10.0 mi SSE 11.5 mph - N/A   Clear
11:53 PM 69.1 °F - 50.0 °F 51% 30.04 in 10.0 mi SSE 13.8 mph 21.9 mph N/A   Clear